Weather History for Hilton Head Island, SC

Change the Weather History Date:

Wednesday, March 27, 2013

  Actual Average Record
Temperature  
Mean Temperature 45 °F -  
Max Temperature 53 °F 70 °F 84 °F (2011)
Min Temperature 37 °F 48 °F 28 °F (1955)
Degree Days  
Heating Degree Days 20    
Moisture  
Dew Point -13 °F    
Average Humidity 42    
Maximum Humidity 100    
Minimum Humidity 4    
Precipitation  
Precipitation 0.00 in - - ()
Sea Level Pressure  
Sea Level Pressure 30.25 in    
Wind  
Wind Speed 7 mph (WNW)    
Max Wind Speed 13 mph    
Max Gust Speed 21 mph    
Visibility 10 miles    
Events      
Averages and records for this station are not official NWS values.
T = Trace of Precipitation, MM = Missing Value Source: NWS Daily Summary

Daily Weather History Graph

Daily Weather History Graph

Search for Another Location

Airport:

Trip Planner

Search our weather history database for the weather conditions in past years. The results will help you decide how hot, cold, wet, or windy it might be!

Date:

Astronomy

Mar. 27, 2013 Rise Set
Actual Time 7:17 AM EDT 7:39 PM EDT
Civil Twilight 6:52 AM EDT 8:03 PM EDT
Nautical Twilight 6:23 AM EDT 8:32 PM EDT
Astronomical Twilight 5:54 AM EDT 9:01 PM EDT
Moon 8:16 PM EDT (3/27) 7:10 AM EDT (3/27)
Length of Visible Light 13h 11m
Length of Day
12h 22m
Full, 100% of the Moon is Illuminated
Mar 27
Full
Apr 3
Last Quarter
Apr 10
New
Apr 18
First Quarter
Apr 25
Full

Hourly Weather History & Observations

Time (EDT) Temp. Windchill Dew Point Humidity Pressure Visibility Wind Dir Wind Speed Gust Speed Precip Events Conditions
12:15 AM 42.8 °F 36.6 °F -72.4 °F 4% 30.24 in 10.0 mi West 11.5 mph 20.7 mph 0.00 in   Clear
12:35 AM 42.8 °F 38.0 °F -72.4 °F 4% 30.24 in 10.0 mi West 8.1 mph - 0.00 in   Clear
12:55 AM 42.8 °F 38.6 °F -74.2 °F 4% 30.24 in 10.0 mi West 6.9 mph - 0.00 in   Clear
1:15 AM 42.8 °F 37.0 °F -74.2 °F 4% 30.24 in 10.0 mi West 10.4 mph - 0.00 in   Clear
1:35 AM 42.8 °F 39.3 °F -74.2 °F 4% 30.24 in 10.0 mi West 5.8 mph - 0.00 in   Clear
1:55 AM 41.0 °F 35.8 °F -76.0 °F 4% 30.24 in 10.0 mi West 8.1 mph - 0.00 in   Clear
2:15 AM 41.0 °F 37.1 °F -76.0 °F 4% 30.24 in 10.0 mi West 5.8 mph - 0.00 in   Clear
2:35 AM 39.2 °F 35.0 °F -74.2 °F 4% 30.23 in 10.0 mi NW 5.8 mph - 0.00 in   Clear
2:55 AM 39.2 °F 35.0 °F -76.0 °F 4% 30.23 in 10.0 mi NW 5.8 mph - 0.00 in   Clear
3:15 AM 39.2 °F 34.2 °F -76.0 °F 4% 30.23 in 10.0 mi NW 6.9 mph - 0.00 in   Clear
3:35 AM 39.2 °F 33.6 °F -76.0 °F 4% 30.23 in 10.0 mi NW 8.1 mph - 0.00 in   Clear
3:55 AM 39.2 °F 34.2 °F -76.0 °F 4% 30.23 in 10.0 mi NW 6.9 mph - 0.00 in   Clear
4:15 AM 39.2 °F 34.2 °F -76.0 °F 4% 30.23 in 10.0 mi NW 6.9 mph - 0.00 in   Clear
4:55 AM 37.4 °F 32.1 °F -76.0 °F 4% 30.23 in 10.0 mi NW 6.9 mph - 0.00 in   Clear
5:15 AM 37.4 °F 32.8 °F -76.0 °F 4% 30.24 in 10.0 mi NW 5.8 mph - 0.00 in   Clear
5:35 AM 37.4 °F 32.8 °F -76.0 °F 4% 30.24 in 10.0 mi NW 5.8 mph - 0.00 in   Clear
5:55 AM 37.4 °F 34.9 °F -77.8 °F 4% 30.24 in 10.0 mi WNW 3.5 mph - 0.00 in   Clear
6:15 AM 37.4 °F 32.8 °F -76.0 °F 4% 30.25 in 10.0 mi WNW 5.8 mph - 0.00 in   Clear
6:50 AM 39.2 °F 34.2 °F 32.0 °F 75% 30.25 in 10.0 mi West 6.9 mph - N/A   Clear
7:50 AM 39.2 °F 34.2 °F 30.2 °F 70% 30.28 in 10.0 mi WSW 6.9 mph - N/A   Clear
8:50 AM 41.0 °F 35.2 °F 32.0 °F 70% 30.30 in 10.0 mi North 9.2 mph - N/A   Clear
10:20 AM 44.6 °F 38.4 °F 30.2 °F 57% 30.30 in 10.0 mi NNW 12.7 mph - N/A   Clear
10:50 AM 46.4 °F 41.1 °F 26.6 °F 46% 30.30 in 10.0 mi NNW 11.5 mph - N/A   Clear
11:50 AM 50.0 °F - 30.2 °F 47% 30.29 in 10.0 mi NW 4.6 mph - N/A   Clear
12:57 PM 50.0 °F - 23.0 °F 35% 30.28 in 10.0 mi WSW 11.5 mph - N/A   Clear
1:50 PM 51.8 °F - 28.4 °F 41% 30.26 in 10.0 mi NNW 8.1 mph - N/A   Clear
2:50 PM 53.6 °F - 30.2 °F 41% 30.24 in 10.0 mi South 5.8 mph - N/A   Clear
3:50 PM 53.6 °F - 32.0 °F 44% 30.23 in 10.0 mi SSE 6.9 mph - N/A   Clear
4:50 PM 53.6 °F - 33.8 °F 47% 30.22 in 10.0 mi SSE 6.9 mph - N/A   Clear
5:50 PM 53.6 °F - 37.4 °F 54% 30.22 in 10.0 mi SSE 6.9 mph - N/A   Clear
6:50 PM 53.6 °F - 39.2 °F 58% 30.22 in 10.0 mi South 4.6 mph - N/A   Clear
7:50 PM 48.2 °F - 41.0 °F 76% 30.23 in 10.0 mi Calm Calm - N/A   Clear
9:15 PM 44.6 °F - 44.6 °F 100% 30.25 in 10.0 mi Calm Calm - 0.00 in   Clear
9:35 PM 42.8 °F - 42.8 °F 100% 30.25 in 10.0 mi Calm Calm - 0.00 in   Clear
9:55 PM 42.8 °F - 42.8 °F 100% 30.26 in 10.0 mi Calm Calm - 0.00 in   Clear
10:15 PM 42.8 °F - 42.8 °F 100% 30.26 in 10.0 mi Calm Calm - 0.00 in   Clear
10:35 PM 41.0 °F - 41.0 °F 100% 30.26 in 10.0 mi Calm Calm - 0.00 in   Clear
10:55 PM 41.0 °F - 41.0 °F 100% 30.26 in 10.0 mi Calm Calm - 0.00 in   Clear
11:15 PM 39.2 °F - 39.2 °F 100% 30.26 in 10.0 mi Calm Calm - 0.00 in   Clear
11:35 PM 39.2 °F 37.0 °F 39.2 °F 100% 30.26 in 10.0 mi WSW 3.5 mph - 0.00 in   Clear
11:55 PM 39.2 °F - 39.2 °F 100% 30.26 in 10.0 mi Calm Calm - 0.00 in   Clear